FW0954 Weather Reports


time (UTC)temp
F
wind
direction
speed
knots
gust
knots
rain 1hr
in
rain 24hr
in
rain mn
in
humidity
%
barometer
mb
20260506051004 67 258 0.0 1.7 0.00 0.04 0.00 79 1009.1
20260506050503 67 287 0.0 0.9 0.00 0.04 0.00 79 1009.2
20260506045003 68 90 0.0 2.6 0.00 0.04 0.04 79 1009.1
20260506044501 68 227 0.0 2.6 0.00 0.04 0.04 79 1009.0
20260506043002 69 39 0.0 1.7 0.00 0.04 0.04 79 1008.7
20260506042501 70 42 0.0 1.7 0.00 0.04 0.04 79 1008.8
20260506042001 70 18 0.0 2.6 0.00 0.04 0.04 79 1008.6
20260506041501 70 23 0.0 2.6 0.00 0.04 0.04 79 1008.5
20260506040501 70 22 0.0 0.9 0.00 0.04 0.04 79 1008.5
20260506040001 70 23 0.0 1.7 0.00 0.04 0.04 79 1008.5
20260506035501 71 15 0.0 1.7 0.00 0.04 0.04 78 1008.5
20260506035001 71 28 0.9 5.2 0.00 0.04 0.04 78 1008.4
20260506034501 71 48 0.0 5.2 0.00 0.04 0.04 78 1008.3
20260506034001 72 51 0.0 0.9 0.00 0.04 0.04 78 1008.2
20260506033501 72 47 0.0 2.6 0.00 0.04 0.04 79 1008.1
20260506033001 72 50 0.0 2.6 0.00 0.04 0.04 79 1008.2
20260506032502 72 67 0.0 2.6 0.00 0.04 0.04 79 1008.0
20260506032001 73 44 0.9 2.6 0.00 0.04 0.04 78 1008.0
20260506031501 73 29 0.9 2.6 0.00 0.04 0.04 78 1008.1
20260506031001 74 29 0.9 2.6 0.00 0.04 0.04 78 1007.9
20260506030501 74 61 0.9 1.7 0.00 0.04 0.04 79 1007.7
20260506030002 74 94 0.0 1.7 0.00 0.04 0.04 79 1007.5
20260506025001 73 87 0.0 1.7 0.00 0.04 0.04 80 1007.2
20260506024502 73 100 0.0 1.7 0.00 0.04 0.04 81 1007.2
20260506024001 73 77 0.0 0.9 0.00 0.04 0.04 81 1006.7
20260506023502 73 12 0.0 0.9 0.00 0.04 0.04 82 1006.5
20260506023001 73 12 0.0 0.9 0.00 0.04 0.04 82 1006.4
20260506022502 73 348 0.0 0.9 0.00 0.04 0.04 84 1006.2
20260506022001 73 71 0.0 0.9 0.00 0.04 0.04 83 1006.1
20260506021502 73 129 0.0 1.7 0.00 0.04 0.04 84 1006.1
20260506021001 73 130 0.0 1.7 0.00 0.04 0.04 83 1006.2
20260506020501 73 130 0.0 0.9 0.00 0.04 0.04 83 1006.2
20260506015501 74 131 0.0 1.7 0.00 0.04 0.04 83 1006.1
20260506015001 75 132 0.0 2.6 0.00 0.04 0.04 85 1005.9
20260506014501 76 136 0.0 2.6 0.00 0.04 0.04 82 1005.5
20260506014002 77 208 0.0 0.9 0.00 0.04 0.04 82 1005.6
20260506013502 78 208 0.0 0.9 0.02 0.04 0.04 86 1005.6
20260506013001 79 208 0.0 0.9 0.02 0.04 0.04 86 1005.8
20260506012502 79 208 0.0 1.7 0.03 0.04 0.04 86 1005.9
20260506012002 79 208 0.0 1.7 0.04 0.04 0.04 85 1005.5
20260506011502 79 198 1.7 7.8 0.04 0.04 0.04 84 1005.1
20260506011001 79 195 1.7 7.8 0.04 0.04 0.04 85 1005.1
20260506010502 79 193 0.9 5.2 0.04 0.04 0.04 85 1004.7
20260506005501 79 192 0.9 7.0 0.04 0.04 0.04 85 1005.0
20260506005002 79 226 0.0 1.7 0.04 0.04 0.04 86 1005.1
20260506004501 80 228 0.0 1.7 0.04 0.04 0.04 85 1005.0
20260506004001 80 228 0.0 3.5 0.04 0.04 0.04 84 1005.1
20260506003001 81 255 0.9 4.3 0.02 0.02 0.02 82 1005.0
20260506002502 82 239 1.7 4.3 0.01 0.01 0.01 80 1005.0
20260506002001 82 194 1.7 7.0 0.00 0.00 0.00 80 1004.8
20260506001502 82 185 2.6 7.8 0.00 0.00 0.00 79 1004.8
20260506001002 83 183 2.6 7.8 0.00 0.00 0.00 79 1004.7
20260506000501 83 174 2.6 7.8 0.00 0.00 0.00 76 1004.2
20260506000002 83 169 2.6 6.1 0.00 0.00 0.00 76 1004.2
20260505235501 84 173 3.5 9.6 0.00 0.00 0.00 76 1003.9
20260505235001 84 174 3.5 10.4 0.00 0.00 0.00 75 1003.8
20260505234502 84 186 4.3 10.4 0.00 0.00 0.00 75 1004.0
20260505233002 86 181 4.3 10.4 0.00 0.00 0.00 73 1004.2
20260505232501 86 178 3.5 10.4 0.00 0.00 0.00 72 1004.0
20260505231502 87 185 2.6 7.8 0.00 0.00 0.00 71 1004.1
20260505231001 88 181 3.5 7.8 0.00 0.00 0.00 70 1004.1
20260505230502 88 187 4.3 8.7 0.00 0.00 0.00 69 1003.9
20260505230002 88 193 3.5 8.7 0.00 0.00 0.00 69 1003.9
20260505225501 88 186 3.5 9.6 0.00 0.00 0.00 69 1003.7
20260505225002 88 173 3.5 9.6 0.00 0.00 0.00 69 1003.9
20260505224502 88 172 3.5 10.4 0.00 0.00 0.00 69 1003.9
20260505224002 89 171 4.3 10.4 0.00 0.00 0.00 69 1003.7
20260505222502 89 190 3.5 11.3 0.00 0.00 0.00 69 1003.8
20260505222002 89 184 3.5 11.3 0.00 0.00 0.00 69 1003.8
20260505221502 89 183 4.3 11.3 0.00 0.00 0.00 68 1003.8
20260505221002 89 178 4.3 10.4 0.00 0.00 0.00 68 1003.6
20260505220502 89 183 3.5 9.6 0.00 0.00 0.00 68 1003.6
20260505220002 90 195 3.5 10.4 0.00 0.00 0.00 67 1003.7
20260505215502 89 191 4.3 10.4 0.00 0.00 0.00 67 1003.7
20260505215001 90 192 3.5 8.7 0.00 0.00 0.00 66 1003.7
20260505214502 90 195 3.5 8.7 0.00 0.00 0.00 67 1003.7
20260505214002 89 190 3.5 8.7 0.00 0.00 0.00 68 1003.8
20260505213501 89 179 3.5 9.6 0.00 0.00 0.00 67 1003.8
20260505213002 89 178 4.3 9.6 0.00 0.00 0.00 67 1003.8
20260505212002 89 196 4.3 11.3 0.00 0.00 0.00 67 1004.0
20260505211502 89 190 3.5 9.6 0.00 0.00 0.00 66 1004.0
20260505210002 90 181 3.5 7.8 0.00 0.00 0.00 66 1004.1
20260505205502 90 195 3.5 7.8 0.00 0.00 0.00 66 1004.2
20260505205003 90 203 3.5 7.8 0.00 0.00 0.00 64 1004.3
20260505204502 90 198 3.5 7.8 0.00 0.00 0.00 65 1004.4
20260505204001 89 204 3.5 7.8 0.00 0.00 0.00 67 1004.4
20260505203502 89 207 2.6 7.8 0.00 0.00 0.00 66 1004.4
20260505203002 88 202 3.5 11.3 0.00 0.00 0.00 69 1004.5
20260505202502 88 197 4.3 11.3 0.00 0.00 0.00 67 1004.5
20260505201501 88 199 4.3 11.3 0.00 0.00 0.00 66 1004.6
20260505201002 88 194 3.5 11.3 0.00 0.00 0.00 67 1004.6
20260505200502 88 189 4.3 8.7 0.00 0.00 0.00 68 1004.6
20260505200002 88 189 4.3 11.3 0.00 0.00 0.00 69 1004.7
20260505195502 88 199 3.5 11.3 0.00 0.00 0.00 67 1004.7
20260505195001 88 206 3.5 8.7 0.00 0.00 0.00 68 1004.6
20260505194502 87 193 4.3 13.9 0.00 0.00 0.00 70 1004.7
20260505194002 87 198 4.3 13.9 0.00 0.00 0.00 69 1004.7
20260505193502 86 198 4.3 13.0 0.00 0.00 0.00 70 1004.7
20260505193002 86 190 5.2 13.0 0.00 0.00 0.00 70 1004.8
20260505191502 85 194 5.2 13.9 0.00 0.00 0.00 70 1004.9
20260505191002 85 192 5.2 13.9 0.00 0.00 0.00 71 1004.9
20260505190502 85 194 4.3 12.2 0.00 0.00 0.00 71 1004.9
20260505190003 85 191 3.5 13.9 0.00 0.00 0.00 73 1005.0
20260505185502 84 191 4.3 13.9 0.00 0.00 0.00 72 1004.9
20260505185002 84 194 4.3 12.2 0.00 0.00 0.00 72 1005.1
20260505184502 84 198 4.3 10.4 0.00 0.00 0.00 73 1005.1
20260505184002 84 198 4.3 10.4 0.00 0.00 0.00 72 1005.1
20260505183503 84 194 4.3 10.4 0.00 0.00 0.00 72 1005.2
20260505182502 84 186 3.5 8.7 0.00 0.00 0.00 73 1005.1
20260505182003 84 189 3.5 9.6 0.00 0.00 0.00 73 1005.2
20260505181502 83 189 4.3 11.3 0.00 0.00 0.00 73 1005.2
20260505181002 84 187 4.3 12.2 0.00 0.00 0.00 72 1005.2
20260505180002 84 198 4.3 14.8 0.00 0.00 0.00 70 1005.3
20260505175502 85 193 3.5 7.0 0.00 0.00 0.00 70 1005.3
20260505175002 85 191 3.5 11.3 0.00 0.00 0.00 71 1005.3
20260505174502 84 192 4.3 11.3 0.00 0.00 0.00 72 1005.4
20260505174002 84 198 4.3 11.3 0.00 0.00 0.00 72 1005.3
20260505173503 84 203 4.3 11.3 0.00 0.00 0.00 72 1005.2
20260505173003 83 200 3.5 10.4 0.00 0.00 0.00 72 1005.3
20260505172502 84 198 2.6 11.3 0.00 0.00 0.00 72 1005.2
20260505171003 82 195 4.3 10.4 0.00 0.00 0.00 73 1005.4
20260505170502 82 200 4.3 14.8 0.00 0.00 0.00 75 1005.5
20260505170002 81 201 4.3 14.8 0.00 0.00 0.00 75 1005.5
20260505165002 81 199 5.2 11.3 0.00 0.00 0.00 75 1005.4
20260505164503 81 197 4.3 10.4 0.00 0.00 0.00 75 1005.5
20260505164002 81 213 4.3 9.6 0.00 0.00 0.00 75 1005.8
20260505163502 81 208 4.3 10.4 0.00 0.00 0.00 75 1005.5
20260505163002 81 193 4.3 11.3 0.00 0.00 0.00 77 1005.3
20260505162503 80 187 5.2 13.0 0.00 0.00 0.00 76 1005.3
20260505161503 79 193 6.1 13.9 0.00 0.00 0.00 77 1005.2
20260505161002 79 190 5.2 13.9 0.00 0.00 0.00 77 1005.2
20260505160502 79 192 5.2 12.2 0.00 0.00 0.00 78 1005.2
20260505153003 78 207 4.3 11.3 0.00 0.00 0.00 80 1005.4
20260505152502 78 200 3.5 9.6 0.00 0.00 0.00 80 1005.5
20260505152003 77 194 5.2 14.8 0.00 0.00 0.00 81 1005.5
20260505151503 76 197 6.1 14.8 0.00 0.00 0.00 82 1005.4
20260505151002 76 194 6.1 13.0 0.00 0.00 0.00 82 1005.3
20260505150503 75 191 5.2 13.0 0.00 0.00 0.00 82 1005.3
20260505125003 72 193 3.5 12.2 0.00 0.00 0.00 87 1005.1
20260505124503 72 199 2.6 7.8 0.00 0.00 0.00 87 1004.9
20260505124003 72 196 3.5 9.6 0.00 0.00 0.00 87 1004.7
20260505123503 72 191 3.5 9.6 0.00 0.00 0.00 87 1004.7
20260505123003 72 195 3.5 9.6 0.00 0.00 0.00 87 1004.6
20260505122502 72 199 3.5 7.8 0.00 0.00 0.00 87 1004.7
20260505122003 72 198 3.5 9.6 0.00 0.00 0.00 87 1004.6
20260505121503 72 192 4.3 11.3 0.00 0.00 0.00 87 1004.6
20260505121003 72 190 4.3 11.3 0.00 0.00 0.00 87 1004.6
20260505120503 72 192 3.5 10.4 0.00 0.00 0.00 87 1004.5
20260505120004 72 186 4.3 10.4 0.00 0.00 0.00 87 1004.4
20260505115503 72 194 4.3 10.4 0.00 0.00 0.00 87 1004.4
20260505115002 72 200 5.2 11.3 0.00 0.00 0.00 87 1004.4
20260505114503 71 194 4.3 11.3 0.00 0.00 0.00 87 1004.4
20260505114003 71 188 4.3 7.8 0.00 0.00 0.00 87 1004.3
20260505112503 72 183 4.3 11.3 0.00 0.00 0.00 87 1004.3
20260505112003 72 186 4.3 10.4 0.00 0.00 0.00 87 1004.2
20260505111503 71 193 4.3 10.4 0.00 0.00 0.00 87 1004.3
20260505111003 71 198 4.3 11.3 0.00 0.00 0.00 87 1004.3
20260505102003 72 187 4.3 12.2 0.00 0.00 0.00 86 1004.4
20260505100503 72 187 5.2 10.4 0.00 0.00 0.00 86 1004.4
20260505100003 72 183 4.3 11.3 0.00 0.00 0.00 86 1004.5
20260505094503 72 185 5.2 11.3 0.00 0.00 0.00 86 1004.7
20260505094003 72 191 5.2 12.2 0.00 0.00 0.00 86 1004.7
20260505093502 72 192 4.3 12.2 0.00 0.00 0.00 86 1004.7
20260505093004 72 190 4.3 12.2 0.00 0.00 0.00 86 1004.8
20260505092503 72 188 4.3 12.2 0.00 0.00 0.00 86 1004.8
20260505092003 72 192 5.2 11.3 0.00 0.00 0.00 86 1004.7
20260505091503 72 194 6.1 14.8 0.00 0.00 0.00 86 1004.7
20260505091003 72 191 5.2 14.8 0.00 0.00 0.00 86 1004.8
20260505090503 72 195 6.1 13.9 0.00 0.00 0.00 86 1004.7
20260505090003 72 197 6.1 13.0 0.00 0.00 0.00 86 1004.6
20260505085503 72 194 5.2 13.0 0.00 0.00 0.00 86 1004.6
20260505085003 72 194 6.1 13.0 0.00 0.00 0.00 86 1004.5
20260505084503 72 196 5.2 13.0 0.00 0.00 0.00 86 1004.6
20260505084003 72 195 6.1 14.8 0.00 0.00 0.00 86 1004.6
20260505083503 72 193 6.1 15.6 0.00 0.00 0.00 86 1004.6
20260505083003 72 198 5.2 15.6 0.00 0.00 0.00 86 1004.7
20260505082003 71 189 5.2 14.8 0.00 0.00 0.00 86 1004.7
20260505081504 71 190 6.1 14.8 0.00 0.00 0.00 86 1004.7
20260505080503 72 188 5.2 16.5 0.00 0.00 0.00 86 1004.7
20260505075503 72 192 6.1 16.5 0.00 0.00 0.00 86 1005.1
20260505075003 72 194 5.2 12.2 0.00 0.00 0.00 86 1005.1
20260505074504 72 196 5.2 13.0 0.00 0.00 0.00 86 1005.2
20260505074003 72 196 6.1 14.8 0.00 0.00 0.00 86 1005.3
20260505073504 72 193 6.1 14.8 0.00 0.00 0.00 86 1005.5
20260505073003 72 191 5.2 15.6 0.00 0.00 0.00 86 1005.5
20260505072503 72 189 5.2 15.6 0.00 0.00 0.00 85 1005.6
20260505072003 72 189 4.3 14.8 0.00 0.00 0.00 85 1005.6
20260505071503 72 190 5.2 14.8 0.00 0.00 0.00 85 1005.8
20260505070503 72 192 5.2 20.0 0.00 0.00 0.00 85 1005.7
20260505070003 72 189 6.1 20.0 0.00 0.00 0.00 84 1005.8
20260505065503 72 189 5.2 15.6 0.00 0.00 0.00 84 1005.8
20260505065003 72 192 5.2 13.9 0.00 0.00 0.00 84 1005.9
20260505064503 72 185 4.3 13.9 0.00 0.00 0.00 84 1005.9
20260505064004 72 178 4.3 10.4 0.00 0.00 0.00 84 1006.0
20260505063503 72 183 4.3 10.4 0.00 0.00 0.00 84 1005.9
20260505063003 72 186 4.3 11.3 0.00 0.00 0.00 84 1006.1
20260505062504 72 187 4.3 11.3 0.00 0.00 0.00 84 1005.9
20260505062003 72 188 3.5 10.4 0.00 0.00 0.00 83 1006.0
20260505060503 72 185 4.3 13.0 0.00 0.00 0.00 83 1006.2
20260505060003 72 189 4.3 9.6 0.00 0.00 0.00 83 1006.2
20260505055504 72 190 4.3 9.6 0.00 0.00 0.00 82 1006.1
20260505055003 72 187 3.5 12.2 0.00 0.00 0.00 82 1006.2
20260505054504 72 186 4.3 12.2 0.00 0.00 0.00 82 1006.2
20260505054003 72 182 4.3 12.2 0.00 0.00 0.00 82 1006.3
20260505053503 72 182 4.3 12.2 0.00 0.00 0.00 82 1006.3
20260505053004 72 181 4.3 10.4 0.00 0.00 0.00 81 1006.3